Location: La Comballaz
(46.3780°N, 7.0817°E)
Time: 04:05:46
(UTC+00:00)

Envisat - Pass Details

Date: 08 December 2021
Orbit: 764 x 766 km, 98.2° (Epoch: 16 January)

Event Time Altitude Azimuth Distance (km) Brightness Sun altitude
Rises 03:03:52 0° 32° (NNE) 3,242 6.7 -40.1°
Reaches altitude 10° 03:07:38 10° 61° (ENE) 2,309 6.1 -39.4°
Maximum altitude 03:09:50 13° 87° (E) 2,118 5.9 -39.1°
Drops below altitude 10° 03:12:03 10° 113° (ESE) 2,300 6.0 -38.7°
Sets 03:15:46 0° 141° (SE) 3,219 6.6 -38.0°
